Tacoma, WA

11:57 AM PDT on July 25, 2016 (GMT -0700)
McChord Air Force Base

Weather History for KTCM - November, 2011

Change the Weather History Date:

Sunday, November 6, 2011

  Actual Average Record
Temperature  
Mean Temperature 36 °F -  
Max Temperature 49 °F 52 °F 69 °F (1999)
Min Temperature 24 °F 35 °F 19 °F (2003)
Degree Days  
Heating Degree Days 29    
Moisture  
Dew Point 28 °F    
Average Humidity 92    
Maximum Humidity 100    
Minimum Humidity 57    
Precipitation  
Precipitation 0.00 in - - ()
Sea Level Pressure  
Sea Level Pressure 29.94 in    
Wind  
Wind Speed 0 mph (NW)    
Max Wind Speed 5 mph    
Max Gust Speed -    
Visibility 4 miles    
Events      
Averages and records for this station are not official NWS values.
T = Trace of Precipitation, MM = Missing Value Source: NWS Daily Summary

Daily Weather History Graph

Daily Weather History Graph

Search for Another Location

Airport or City:

Trip Planner

Search our weather history database for the weather conditions in past years. The results will help you decide how hot, cold, wet, or windy it might be!

Date:

Astronomy

Nov. 06, 2011 Rise Set
Actual Time 7:00 AM PST 4:46 PM PST
Civil Twilight 6:27 AM PST 5:18 PM PST
Nautical Twilight 5:51 AM PST 5:55 PM PST
Astronomical Twilight 5:15 AM PST 6:30 PM PST
Moon 2:43 PM PST (11/6) 2:59 AM PST (11/6)
Length of Visible Light 10h 50m
Length of Day
9h 46m
Waxing Gibbous, 86% of the Moon is Illuminated
Nov 6
Waxing Gibbous
Nov 10
Full
Nov 18
Last Quarter
Nov 24
New
Dec 2
First Quarter

Hourly Weather History & Observations

Time (PST) Temp. Windchill Dew Point Humidity Pressure Visibility Wind Dir Wind Speed Gust Speed Precip Events Conditions
12:55 AM 28.8 °F - 28.4 °F 99% 29.86 in 4.0 mi Calm Calm - N/A   Clear
1:18 AM 28.4 °F - 28.4 °F 100% 29.86 in 2.5 mi Calm Calm - N/A   Clear
1:20 AM 28.4 °F - 28.4 °F 100% 29.86 in 2.0 mi Calm Calm - N/A   Clear
1:26 AM 30.2 °F - 28.4 °F 93% 29.86 in 2.5 mi Calm Calm - N/A   Clear
1:27 AM 30.2 °F - 28.4 °F 93% 29.86 in 3.0 mi Calm Calm - N/A   Clear
1:55 AM 28.2 °F - 27.5 °F 97% 29.87 in 2.5 mi Calm Calm - N/A   Clear
1:56 AM 28.4 °F - 26.6 °F 93% 29.87 in 2.0 mi Calm Calm - N/A   Clear
1:57 AM 28.4 °F - 26.6 °F 93% 29.87 in 1.5 mi Calm Calm - N/A   Clear
1:58 AM 28.4 °F - 26.6 °F 93% 29.87 in 1.0 mi Calm Calm - N/A   Clear
1:01 AM 28.4 °F - 26.6 °F 93% 29.87 in 0.8 mi Calm Calm - N/A   Clear
1:03 AM 28.4 °F - 26.6 °F 93% 29.87 in 0.8 mi Calm Calm - N/A   Clear
1:07 AM 28.4 °F - 26.6 °F 93% 29.87 in 0.8 mi Calm Calm - N/A   Clear
1:08 AM 28.4 °F - 26.6 °F 93% 29.87 in 1.0 mi Calm Calm - N/A   Clear
1:10 AM 28.4 °F - 26.6 °F 93% 29.87 in 1.2 mi Calm Calm - N/A   Clear
1:14 AM 28.4 °F - 28.4 °F 100% 29.87 in 2.0 mi Calm Calm - N/A   Clear
1:15 AM 28.4 °F - 28.4 °F 100% 29.87 in 3.0 mi Calm Calm - N/A   Clear
1:39 AM 28.4 °F - 28.4 °F 100% 29.87 in 2.5 mi Calm Calm - N/A   Clear
1:46 AM 26.6 °F - 26.6 °F 100% 29.87 in 4.0 mi Calm Calm - N/A   Clear
1:55 AM 25.7 °F - 25.0 °F 97% 29.88 in 9.0 mi Calm Calm - N/A   Clear
2:10 AM 26.6 °F - 26.6 °F 100% 29.88 in 2.5 mi Calm Calm - N/A   Clear
2:14 AM 28.4 °F - 26.6 °F 93% 29.88 in 2.0 mi Calm Calm - N/A   Clear
2:15 AM 28.4 °F - 26.6 °F 93% 29.88 in 2.0 mi Calm Calm - N/A   Clear
2:16 AM 28.4 °F - 26.6 °F 93% 29.88 in 1.8 mi Calm Calm - N/A   Clear
2:17 AM 28.4 °F - 26.6 °F 93% 29.88 in 1.5 mi Calm Calm - N/A   Clear
2:21 AM 28.4 °F - 26.6 °F 93% 29.88 in 1.0 mi Calm Calm - N/A   Clear
2:22 AM 28.4 °F - 26.6 °F 93% 29.88 in 1.0 mi Calm Calm - N/A   Clear
2:23 AM 28.4 °F - 26.6 °F 93% 29.88 in 0.8 mi Calm Calm - N/A   Clear
2:24 AM 28.4 °F - 26.6 °F 93% 29.88 in 0.8 mi Calm Calm - N/A   Clear
2:25 AM 28.4 °F - 26.6 °F 93% 29.88 in 0.8 mi Calm Calm - N/A   Clear
2:27 AM 28.4 °F - 26.6 °F 93% 29.88 in 1.0 mi Calm Calm - N/A   Clear
2:30 AM 28.4 °F - 26.6 °F 93% 29.88 in 1.2 mi Calm Calm - N/A   Clear
2:32 AM 28.4 °F - 28.4 °F 100% 29.88 in 1.8 mi Calm Calm - N/A   Clear
2:33 AM 28.4 °F - 26.6 °F 93% 29.88 in 2.0 mi Calm Calm - N/A   Clear
2:34 AM 28.4 °F - 26.6 °F 93% 29.88 in 2.5 mi Calm Calm - N/A   Clear
2:36 AM 28.4 °F - 26.6 °F 93% 29.88 in 3.0 mi Calm Calm - N/A   Clear
2:40 AM 26.6 °F - 26.6 °F 100% 29.88 in 2.5 mi Calm Calm - N/A   Clear
2:41 AM 26.6 °F - 26.6 °F 100% 29.88 in 2.0 mi Calm Calm - N/A   Clear
2:42 AM 28.4 °F - 26.6 °F 93% 29.88 in 1.8 mi Calm Calm - N/A   Clear
2:43 AM 28.4 °F - 26.6 °F 93% 29.88 in 1.5 mi Calm Calm - N/A   Clear
2:49 AM 28.4 °F - 26.6 °F 93% 29.89 in 1.8 mi Calm Calm - N/A   Clear
2:50 AM 28.4 °F - 26.6 °F 93% 29.88 in 2.0 mi Calm Calm - N/A   Clear
2:51 AM 28.4 °F - 26.6 °F 93% 29.88 in 2.5 mi Calm Calm - N/A   Clear
2:52 AM 28.4 °F - 26.6 °F 93% 29.89 in 3.0 mi Calm Calm - N/A   Clear
2:55 AM 27.3 °F - 26.8 °F 98% 29.89 in 5.0 mi Calm Calm - N/A   Clear
3:55 AM 27.9 °F - 27.3 °F 98% 29.90 in 9.0 mi Calm Calm - N/A   Clear
4:55 AM 25.2 °F - 24.1 °F 96% 29.92 in 7.0 mi Calm Calm - N/A   Clear
5:26 AM 26.6 °F - 26.6 °F 100% 29.92 in 2.5 mi Calm Calm - N/A   Clear
5:28 AM 26.6 °F - 24.8 °F 93% 29.92 in 2.0 mi Calm Calm - N/A   Clear
5:29 AM 26.6 °F - 24.8 °F 93% 29.92 in 1.8 mi Calm Calm - N/A   Clear
5:34 AM 24.8 °F 20.5 °F 24.8 °F 100% 29.93 in 2.0 mi SSE 3.5 mph - N/A   Clear
5:35 AM 24.8 °F - 24.8 °F 100% 29.93 in 2.5 mi Calm Calm - N/A   Clear
5:55 AM 26.2 °F - 25.7 °F 98% 29.93 in 5.0 mi Calm Calm - N/A   Clear
6:55 AM 26.1 °F - 25.3 °F 97% 29.95 in 6.0 mi Calm Calm - N/A   Clear
7:55 AM 26.2 °F - 25.5 °F 97% 29.98 in 8.0 mi Calm Calm - N/A   Clear
8:55 AM 32.2 °F - 30.9 °F 95% 29.99 in 10.0 mi Calm Calm - N/A   Clear
9:55 AM 37.4 °F - 33.6 °F 86% 30.01 in 10.0 mi Calm Calm - N/A   Clear
10:55 AM 42.4 °F - 35.1 °F 75% 30.03 in 10.0 mi Calm Calm - N/A   Clear
11:55 AM 46.2 °F 45.0 °F 35.1 °F 65% 30.03 in 10.0 mi NE 3.5 mph - N/A   Clear
12:55 PM 48.9 °F - 34.3 °F 57% 30.04 in 10.0 mi Calm Calm - N/A   Clear
1:55 PM 48.4 °F - 34.2 °F 58% 30.05 in 10.0 mi NW 3.5 mph - N/A   Overcast
2:55 PM 48.2 °F - 34.3 °F 59% 30.06 in 10.0 mi NW 4.6 mph - N/A   Overcast
3:55 PM 47.3 °F - 34.5 °F 61% 30.08 in 10.0 mi NNW 4.6 mph - N/A   Overcast
4:55 PM 43.7 °F - 33.8 °F 68% 30.10 in 10.0 mi Calm Calm - N/A   Mostly Cloudy
5:55 PM 37.9 °F - 33.3 °F 83% 30.11 in 10.0 mi Calm Calm - N/A   Mostly Cloudy
6:55 PM 37.4 °F - 34.0 °F 87% 30.13 in 10.0 mi Calm Calm - N/A   Overcast
7:55 PM 36.3 °F 33.7 °F 33.6 °F 90% 30.15 in 10.0 mi South 3.5 mph - N/A   Overcast
8:40 PM 37.4 °F - 35.6 °F 93% 30.16 in 10.0 mi Calm Calm - N/A   Overcast
8:50 PM 37.4 °F - 35.6 °F 93% 30.16 in 10.0 mi Calm Calm - N/A   Overcast
8:55 PM 37.4 °F - 35.6 °F 93% 30.17 in 10.0 mi Calm Calm - 0.00 in   Overcast
9:55 PM 36.9 °F - 35.2 °F 94% 30.19 in 10.0 mi Calm Calm - N/A   Overcast
10:55 PM 34.5 °F 31.6 °F 33.4 °F 96% 30.19 in 10.0 mi South 3.5 mph - N/A   Overcast